Location: LDNL
(36.4545°S, 141.6685°E)
Time: 12:09:47
(UTC+10:00)

Tiros 1 despin weight - Pass Details

Date: 16 August 2022
Orbit: 590 x 639 km, 48.2° (Epoch: 23 September)

Event Time Altitude Azimuth Distance (km) Brightness Sun altitude
Rises 02:12:16 0° 242° (WSW) 2,934 - -59.1°
Reaches altitude 10° 02:15:11 10° 224° (SW) 2,035 - -58.7°
Maximum altitude 02:18:34 19° 177° (S) 1,522 - -58.1°
Drops below altitude 10° 02:21:58 10° 131° (SE) 2,048 - -57.6°
Sets 02:24:55 0° 113° (ESE) 2,960 - -57.1°
